Minerva Astra — 9HDW7 — position and weather

sailwx.info

Track history (hours):
 
Tides and Currents Weather Stations Pressure Air Temp Water Temp Dewpoint Dewpoint Depression Visibility Wind Speed Wind Dir Waves Ship Positions

Minerva Astra

Last reported at 2014-Oct-25 09:08 UTC. Time now 2014-Oct-25 22:54 UTC.
Position N 35°58' W 005°36'.

Length 248 m; draft 12.4 m.

Type: Tanker. MMSI: 256703000.

Date/timePositionNaut miles runAvg speedWind from/ knotsBaromVisibWave heightAir tempDewpointWater temp
2014-Oct-25 09:08N 35°58' W 005°36'6 9.8
2014-Oct-25 08:33N 35°59' W 005°30'8 8.3
2014-Oct-25 07:33N 36°05' W 005°23'2 1.6
2014-Oct-25 06:28N 36°07' W 005°22'0 0.0
2014-Oct-25 02:31N 36°07' W 005°22'0 0.0
2014-Oct-25 01:28N 36°07' W 005°22'0 0.0
2014-Oct-25 00:31N 36°07' W 005°22'0 0.1
2014-Oct-24 23:31N 36°07' W 005°22'0 0.2
2014-Oct-24 22:28N 36°07' W 005°22'0 0.1
2014-Oct-24 21:31N 36°07' W 005°22'1 0.9
2014-Oct-24 20:29N 36°06' W 005°22'4 4.7
2014-Oct-24 19:33N 36°06' W 005°17'2 0.8
2014-Oct-24 16:24N 36°09' W 005°18'0 0.2
2014-Oct-24 15:30N 36°09' W 005°18'0 0.0
2014-Oct-24 04:27N 36°09' W 005°18'0 0.1
2014-Oct-24 03:33N 36°09' W 005°18'0 0.1
2014-Oct-24 02:18N 36°09' W 005°18'0 0.0
2014-Oct-24 00:12N 36°09' W 005°18'0 0.2
2014-Oct-23 23:34N 36°09' W 005°19'1 1.3
2014-Oct-23 22:33N 36°08' W 005°17'8 7.5
2014-Oct-23 21:30N 36°08' W 005°07'5 0.7
2014-Oct-23 15:18N 36°06' W 005°13'  
2014-Oct-21 09:05N 37°46' E 007°44'2311.9
2014-Oct-21 07:10N 37°50' E 008°12'812.2
2014-Oct-21 06:33N 37°51' E 008°22'1212.1
2014-Oct-21 05:33N 37°52' E 008°37'1212.0
2014-Oct-21 04:33N 37°54' E 008°52'1211.7
2014-Oct-21 03:33N 37°53' E 009°07'1211.8
2014-Oct-21 02:33N 37°51' E 009°21'1111.4
2014-Oct-21 01:33N 37°48' E 009°35'1311.4
2014-Oct-21 00:26N 37°42' E 009°50'1211.4
2014-Oct-20 23:21N 37°39' E 010°05'2310.7
2014-Oct-20 21:11N 37°35' E 010°34'50011.7
2014-Oct-19 02:26N 31°41' E 017°42'69 4.6
2014-Oct-18 11:33N 30°40' E 018°22'0 0.2
2014-Oct-18 10:21N 30°41' E 018°22'0 0.1
2014-Oct-18 09:32N 30°41' E 018°22'2 0.1
2014-Oct-17 15:17N 30°42' E 018°23'1 0.9
2014-Oct-17 14:31N 30°42' E 018°23'0 0.0
2014-Oct-17 13:31N 30°42' E 018°23'0 0.0
2014-Oct-17 12:31N 30°42' E 018°23'0 0.0
2014-Oct-17 11:31N 30°42' E 018°23'0 0.0
2014-Oct-17 10:28N 30°42' E 018°23'0 0.0
2014-Oct-17 09:31N 30°42' E 018°23'0 0.0
2014-Oct-17 08:31N 30°42' E 018°23'0 0.0
2014-Oct-17 07:28N 30°42' E 018°23'0 0.0
2014-Oct-17 06:31N 30°42' E 018°23'28 2.0
2014-Oct-16 16:18N 31°09' E 018°14'20 9.9
2014-Oct-16 14:15N 31°24' E 017°58'910.1
2014-Oct-16 13:21N 31°31' E 017°51'9 9.9
2014-Oct-16 12:24N 31°38' E 017°44'8 9.9
2014-Oct-16 11:34N 31°45' E 017°38'1110.0
2014-Oct-16 10:26N 31°53' E 017°29'18110.1
2014-Oct-15 16:29N 34°10' E 015°07'5210.4
2014-Oct-15 11:30N 34°49' E 014°26'1210.3
2014-Oct-15 10:21N 34°58' E 014°17'7 9.0
2014-Oct-15 09:34N 35°03' E 014°11'  
Track history (hours):
 
Tides and Currents Weather Stations Pressure Air Temp Water Temp Dewpoint Dewpoint Depression Visibility Wind Speed Wind Dir Waves Ship Positions

Minerva Astra

Last reported at 2014-Oct-25 09:08 UTC. Time now 2014-Oct-25 22:54 UTC.
Position N 35°58' W 005°36'.

Length 248 m; draft 12.4 m.

Type: Tanker. MMSI: 256703000.

Date/timePositionNaut miles runAvg speedWind from/ knotsBaromVisibWave heightAir tempDewpointWater temp
2014-Oct-25 09:08N 35°58' W 005°36'6 9.8
2014-Oct-25 08:33N 35°59' W 005°30'8 8.3
2014-Oct-25 07:33N 36°05' W 005°23'2 1.6
2014-Oct-25 06:28N 36°07' W 005°22'0 0.0
2014-Oct-25 02:31N 36°07' W 005°22'0 0.0
2014-Oct-25 01:28N 36°07' W 005°22'0 0.0
2014-Oct-25 00:31N 36°07' W 005°22'0 0.1
2014-Oct-24 23:31N 36°07' W 005°22'0 0.2
2014-Oct-24 22:28N 36°07' W 005°22'0 0.1
2014-Oct-24 21:31N 36°07' W 005°22'1 0.9
2014-Oct-24 20:29N 36°06' W 005°22'4 4.7
2014-Oct-24 19:33N 36°06' W 005°17'2 0.8
2014-Oct-24 16:24N 36°09' W 005°18'0 0.2
2014-Oct-24 15:30N 36°09' W 005°18'0 0.0
2014-Oct-24 04:27N 36°09' W 005°18'0 0.1
2014-Oct-24 03:33N 36°09' W 005°18'0 0.1
2014-Oct-24 02:18N 36°09' W 005°18'0 0.0
2014-Oct-24 00:12N 36°09' W 005°18'0 0.2
2014-Oct-23 23:34N 36°09' W 005°19'1 1.3
2014-Oct-23 22:33N 36°08' W 005°17'8 7.5
2014-Oct-23 21:30N 36°08' W 005°07'5 0.7
2014-Oct-23 15:18N 36°06' W 005°13'  
2014-Oct-21 09:05N 37°46' E 007°44'2311.9
2014-Oct-21 07:10N 37°50' E 008°12'812.2
2014-Oct-21 06:33N 37°51' E 008°22'1212.1
2014-Oct-21 05:33N 37°52' E 008°37'1212.0
2014-Oct-21 04:33N 37°54' E 008°52'1211.7
2014-Oct-21 03:33N 37°53' E 009°07'1211.8
2014-Oct-21 02:33N 37°51' E 009°21'1111.4
2014-Oct-21 01:33N 37°48' E 009°35'1311.4
2014-Oct-21 00:26N 37°42' E 009°50'1211.4
2014-Oct-20 23:21N 37°39' E 010°05'2310.7
2014-Oct-20 21:11N 37°35' E 010°34'50011.7
2014-Oct-19 02:26N 31°41' E 017°42'69 4.6
2014-Oct-18 11:33N 30°40' E 018°22'0 0.2
2014-Oct-18 10:21N 30°41' E 018°22'0 0.1
2014-Oct-18 09:32N 30°41' E 018°22'2 0.1
2014-Oct-17 15:17N 30°42' E 018°23'1 0.9
2014-Oct-17 14:31N 30°42' E 018°23'0 0.0
2014-Oct-17 13:31N 30°42' E 018°23'0 0.0
2014-Oct-17 12:31N 30°42' E 018°23'0 0.0
2014-Oct-17 11:31N 30°42' E 018°23'0 0.0
2014-Oct-17 10:28N 30°42' E 018°23'0 0.0
2014-Oct-17 09:31N 30°42' E 018°23'0 0.0
2014-Oct-17 08:31N 30°42' E 018°23'0 0.0
2014-Oct-17 07:28N 30°42' E 018°23'0 0.0
2014-Oct-17 06:31N 30°42' E 018°23'28 2.0
2014-Oct-16 16:18N 31°09' E 018°14'20 9.9
2014-Oct-16 14:15N 31°24' E 017°58'910.1
2014-Oct-16 13:21N 31°31' E 017°51'9 9.9
2014-Oct-16 12:24N 31°38' E 017°44'8 9.9
2014-Oct-16 11:34N 31°45' E 017°38'1110.0
2014-Oct-16 10:26N 31°53' E 017°29'18110.1
2014-Oct-15 16:29N 34°10' E 015°07'5210.4
2014-Oct-15 11:30N 34°49' E 014°26'1210.3
2014-Oct-15 10:21N 34°58' E 014°17'7 9.0
2014-Oct-15 09:34N 35°03' E 014°11'  

Dump ship's entire track history